GW7035 Weather Reports


time (UTC)temp
F
wind
direction
speed
knots
gust
knots
rain 1hr
in
rain 24hr
in
rain mn
in
humidity
%
barometer
mb
20260510182502 62 248 7.0 0.0 0.00 0.00 0.05 43 1010.5
20260510182002 63 248 7.0 0.0 0.00 0.00 0.05 40 1010.5
20260510181501 62 315 7.0 0.0 0.00 0.00 0.05 41 1010.5
20260510181001 62 270 10.4 0.0 0.00 0.00 0.05 42 1010.5
20260510180001 63 270 6.1 0.0 0.00 0.00 0.05 41 1010.5
20260510175502 62 180 7.0 0.0 0.00 0.00 0.05 42 1010.5
20260510175002 63 270 13.9 0.0 0.00 0.00 0.05 40 1010.5
20260510174502 64 270 9.6 0.0 0.00 0.00 0.05 39 1010.2
20260510174001 63 270 5.2 0.0 0.00 0.00 0.05 40 1010.2
20260510173502 64 293 9.6 0.0 0.00 0.00 0.05 40 1010.2
20260510173002 63 203 4.3 0.0 0.00 0.00 0.05 40 1010.2
20260510172502 62 270 9.6 0.0 0.00 0.00 0.05 40 1010.2
20260510172003 62 270 12.2 0.0 0.00 0.00 0.05 40 1010.2
20260510171501 63 270 16.5 0.0 0.00 0.00 0.05 38 1010.2
20260510170501 63 270 7.8 0.0 0.00 0.00 0.05 37 1010.2
20260510170001 62 270 7.8 0.0 0.00 0.00 0.05 37 1010.2
20260510165502 63 248 3.5 0.0 0.00 0.00 0.05 38 1010.2
20260510164501 62 225 7.0 0.0 0.00 0.00 0.05 38 1009.8
20260510164001 61 270 14.8 0.0 0.00 0.00 0.05 37 1010.2
20260510163503 61 225 13.9 0.0 0.00 0.00 0.05 37 1010.2
20260510163002 61 270 20.0 0.0 0.00 0.00 0.05 36 1009.8
20260510162502 62 180 6.1 0.0 0.00 0.00 0.05 37 1009.8
20260510162002 63 180 4.3 0.0 0.00 0.00 0.05 37 1009.8
20260510161501 62 270 7.0 0.0 0.00 0.00 0.05 37 1010.2
20260510161001 63 248 3.5 0.0 0.00 0.00 0.05 38 1009.8
20260510160502 63 248 2.6 0.0 0.00 0.00 0.05 39 1009.8
20260510160002 62 203 3.5 0.0 0.00 0.00 0.05 40 1009.8
20260510154002 61 270 6.1 0.0 0.00 0.00 0.05 44 1009.8
20260510153502 61 270 7.0 0.0 0.00 0.00 0.05 46 1009.8
20260510153002 60 225 7.0 0.0 0.00 0.00 0.05 48 1009.8
20260510152501 61 248 9.6 0.0 0.00 0.00 0.05 49 1009.8
20260510152001 61 293 8.7 0.0 0.00 0.00 0.05 47 1009.8
20260510151502 61 293 9.6 0.0 0.00 0.00 0.05 48 1009.8
20260510151002 61 248 3.5 0.0 0.00 0.00 0.05 48 1009.8
20260510150502 61 270 3.5 0.0 0.00 0.00 0.05 50 1009.8
20260510150001 61 203 5.2 0.0 0.00 0.00 0.05 50 1009.5
20260510145501 61 293 6.1 0.0 0.00 0.00 0.05 50 1009.8
20260510145002 61 248 6.1 0.0 0.00 0.00 0.05 49 1009.8
20260510144502 61 270 5.2 0.0 0.00 0.00 0.05 51 1009.5
20260510144001 60 225 7.0 0.0 0.00 0.00 0.05 50 1009.5
20260510143502 60 203 7.0 0.0 0.00 0.00 0.05 50 1009.5
20260510143002 61 180 6.1 0.0 0.00 0.00 0.05 51 1009.5
20260510142001 61 270 14.8 0.0 0.00 0.00 0.05 48 1009.1
20260510141502 61 270 4.3 0.0 0.00 0.00 0.05 45 1009.1
20260510141001 60 270 3.5 0.0 0.00 0.00 0.05 53 1009.1
20260510140502 60 203 5.2 0.0 0.00 0.00 0.05 53 1009.1
20260510135502 60 203 5.2 0.0 0.00 0.00 0.05 55 1009.1
20260510134502 60 225 5.2 0.0 0.00 0.00 0.05 58 1009.1
20260510134001 60 225 3.5 0.0 0.00 0.00 0.05 58 1009.1
20260510133502 59 203 5.2 0.0 0.00 0.00 0.05 62 1009.1
20260510133002 57 203 3.5 0.0 0.00 0.00 0.05 65 1009.1
20260510132502 57 180 6.1 0.0 0.00 0.00 0.05 65 1008.8
20260510131502 57 225 1.7 0.0 0.00 0.00 0.05 68 1008.8
20260510131001 57 248 3.5 0.0 0.00 0.00 0.05 66 1008.8
20260510130502 56 203 2.6 0.0 0.00 0.00 0.05 67 1008.8
20260510130002 55 248 2.6 0.0 0.00 0.00 0.05 68 1008.8
20260510125502 55 225 2.6 0.0 0.00 0.00 0.05 66 1008.5
20260510125001 56 270 4.3 0.0 0.00 0.00 0.05 66 1008.5
20260510124502 56 270 3.5 0.0 0.00 0.00 0.05 67 1008.5
20260510124002 56 203 4.3 0.0 0.00 0.00 0.05 68 1008.5
20260510123502 56 180 7.8 0.0 0.00 0.00 0.05 69 1008.5
20260510123002 55 225 2.6 0.0 0.00 0.00 0.05 70 1008.5
20260510122502 55 203 3.5 0.0 0.00 0.00 0.05 72 1008.5
20260510122002 55 225 4.3 0.0 0.00 0.00 0.05 75 1008.5
20260510121502 54 248 1.7 0.0 0.00 0.00 0.05 82 1008.5
20260510120501 54 203 2.6 0.0 0.00 0.00 0.05 86 1008.1
20260510120001 54 225 2.6 0.0 0.00 0.00 0.05 87 1008.5
20260510115501 55 180 2.6 0.0 0.00 0.00 0.05 86 1008.1
20260510115002 55 158 3.5 0.0 0.00 0.00 0.05 87 1008.1
20260510114502 53 90 2.6 0.0 0.00 0.00 0.05 91 1008.1
20260510113502 53 203 3.5 0.0 0.00 0.00 0.05 90 1007.8
20260510113001 54 180 4.3 0.0 0.00 0.00 0.05 90 1008.1
20260510112502 54 203 3.5 0.0 0.00 0.00 0.05 90 1008.1
20260510112002 54 113 4.3 0.0 0.00 0.00 0.05 91 1007.8
20260510111502 53 135 2.6 0.0 0.00 0.00 0.05 93 1007.8
20260510111002 53 225 2.6 0.0 0.00 0.00 0.05 95 1007.8
20260510110502 52 158 4.3 0.0 0.00 0.00 0.05 97 1007.5
20260510105502 51 180 1.7 0.0 0.00 0.00 0.05 98 1007.1
20260510104002 51 180 3.5 0.0 0.00 0.00 0.05 98 1007.5
20260510103501 51 203 1.7 0.0 0.00 0.00 0.05 98 1007.5
20260510103001 51 180 4.3 0.0 0.00 0.00 0.05 98 1007.5
20260510102501 51 158 1.7 0.0 0.00 0.00 0.05 98 1007.5
20260510102002 51 203 1.7 0.0 0.00 0.00 0.05 98 1007.1
20260510101502 51 180 4.3 0.0 0.00 0.00 0.05 98 1007.1
20260510100502 51 203 2.6 0.0 0.00 0.00 0.05 98 1006.8
20260510100001 51 203 2.6 0.0 0.00 0.00 0.05 99 1006.8
20260510095002 50 225 4.3 0.0 0.00 0.00 0.05 99 1006.8
20260510094501 50 203 2.6 0.0 0.00 0.00 0.05 99 1006.8
20260510094002 50 225 1.7 0.0 0.00 0.00 0.05 99 1006.4
20260510093502 50 180 2.6 0.0 0.00 0.00 0.05 99 1006.4
20260510093002 50 203 3.5 0.0 0.00 0.00 0.05 99 1006.1
20260510092502 51 203 2.6 0.0 0.00 0.00 0.05 99 1006.4
20260510091502 51 203 2.6 0.0 0.00 0.00 0.05 99 1006.4
20260510091002 51 180 2.6 0.0 0.00 0.00 0.05 99 1006.1
20260510090502 51 203 2.6 0.0 0.00 0.00 0.05 99 1006.1
20260510085502 51 158 3.5 0.0 0.00 0.00 0.05 99 1006.1
20260510085002 51 180 1.7 0.0 0.00 0.00 0.05 99 1006.1
20260510084502 51 158 4.3 0.0 0.00 0.00 0.05 99 1006.1
20260510084001 51 180 5.2 0.0 0.00 0.00 0.05 99 1006.1
20260510083507 51 180 2.6 0.0 0.00 0.00 0.05 99 1006.1
20260510083001 51 180 3.5 0.0 0.00 0.00 0.05 99 1005.8
20260510082502 51 225 4.3 0.0 0.00 0.00 0.05 99 1006.1
20260510082002 51 203 2.6 0.0 0.00 0.00 0.05 99 1006.1
20260510081502 51 180 7.0 0.0 0.00 0.00 0.05 98 1006.1
20260510080502 52 180 3.5 0.0 0.00 0.00 0.05 98 1006.1
20260510080003 52 180 6.1 0.0 0.00 0.00 0.05 99 1006.1
20260510075501 52 203 4.3 0.0 0.00 0.00 0.05 99 1006.1
20260510075002 52 203 4.3 0.0 0.01 0.00 0.05 99 1005.8
20260510074502 52 203 2.6 0.0 0.01 0.00 0.05 99 1005.8
20260510073501 51 180 7.0 0.0 0.01 0.00 0.05 99 1005.8
20260510073002 51 315 4.3 0.0 0.01 0.00 0.05 99 1005.8
20260510072002 51 203 5.2 0.0 0.01 0.00 0.05 99 1005.8
20260510071502 51 180 7.0 0.0 0.01 0.00 0.05 99 1005.8
20260510071002 51 203 7.8 0.0 0.03 0.00 0.05 99 1005.8
20260510070501 51 180 7.0 0.0 0.03 0.00 0.05 99 1005.8
20260510070001 51 180 3.5 0.0 0.03 0.00 0.05 99 1005.4
20260510065501 51 180 7.8 0.0 0.02 0.00 0.04 99 1005.4
20260510065002 51 180 4.3 0.0 0.03 0.00 0.04 99 1005.4
20260510064002 51 203 4.3 0.0 0.04 0.00 0.04 99 1005.4
20260510063001 51 158 4.3 0.0 0.04 0.00 0.04 99 1005.8
20260510062501 51 180 5.2 0.0 0.04 0.00 0.04 99 1005.8
20260510062001 51 135 2.6 0.0 0.04 0.00 0.04 99 1005.8
20260510061502 51 203 5.2 0.0 0.03 0.00 0.03 99 1005.8
20260510061002 51 203 7.0 0.0 0.02 0.00 0.02 99 1005.8
20260510060501 51 158 4.3 0.0 0.02 0.00 0.02 98 1005.8
20260510060001 51 203 5.2 0.0 0.02 0.00 0.02 98 1005.8
20260510055502 51 203 7.8 0.0 0.02 0.00 0.02 97 1005.8
20260510055002 51 135 5.2 0.0 0.01 0.00 0.01 96 1005.8
20260510054502 51 158 5.2 0.0 0.00 0.00 0.00 94 1005.8
20260510054002 51 203 6.1 0.0 0.00 0.00 0.00 93 1005.8
20260510053502 52 158 7.0 0.0 0.00 0.00 0.00 90 1005.8
20260510053002 52 203 3.5 0.0 0.00 0.00 0.00 89 1005.8
20260510052501 52 180 3.5 0.0 0.00 0.00 0.00 88 1005.8
20260510052001 52 338 3.5 0.0 0.00 0.00 0.00 88 1005.8
20260510051001 52 180 3.5 0.0 0.00 0.00 0.00 88 1005.8
20260510050502 51 90 5.2 0.0 0.00 0.00 0.00 88 1005.8
20260510050002 51 135 5.2 0.0 0.00 0.00 0.00 88 1005.8
20260510044501 51 180 5.2 0.0 0.00 0.00 0.00 87 1005.8
20260510044002 51 113 6.1 0.0 0.00 0.00 0.00 87 1005.8
20260510043002 51 135 5.2 0.0 0.00 0.00 0.00 86 1005.4
20260510042502 51 158 4.3 0.0 0.00 0.00 0.00 86 1005.4
20260510042001 51 158 7.0 0.0 0.00 0.00 0.00 86 1005.4
20260510041507 51 90 6.1 0.0 0.00 0.00 0.00 86 1005.4
20260510041002 51 113 4.3 0.0 0.00 0.00 0.00 86 1005.8
20260510040502 51 203 7.8 0.0 0.00 0.00 0.00 86 1005.4
20260510040002 51 135 3.5 0.0 0.00 0.00 0.00 86 1005.4
20260510035502 51 135 6.1 0.0 0.00 0.00 0.00 86 1005.8
20260510035001 51 158 6.1 0.0 0.00 0.00 0.00 86 1005.8
20260510034501 51 158 7.0 0.0 0.00 0.00 0.00 86 1005.8
20260510033501 51 135 7.0 0.0 0.00 0.00 0.00 86 1005.8
20260510033001 51 158 6.1 0.0 0.00 0.00 0.00 85 1005.8
20260510032502 51 158 3.5 0.0 0.00 0.00 0.00 85 1005.8
20260510032002 51 113 5.2 0.0 0.00 0.00 0.00 85 1005.8
20260510031002 51 135 4.3 0.0 0.00 0.00 0.00 85 1006.1
20260510030501 51 135 3.5 0.0 0.00 0.00 0.00 85 1006.1
20260510030002 51 135 5.2 0.0 0.00 0.00 0.00 85 1006.4
20260510025502 51 68 1.7 0.0 0.00 0.00 0.00 85 1006.4
20260510025002 51 135 3.5 0.0 0.00 0.00 0.00 85 1006.4
20260510024502 51 158 4.3 0.0 0.00 0.00 0.00 85 1006.4
20260510024001 51 180 3.5 0.0 0.00 0.00 0.00 85 1006.8
20260510023501 51 135 6.1 0.0 0.00 0.00 0.00 85 1006.4
20260510023001 51 113 5.2 0.0 0.00 0.00 0.00 85 1006.8
20260510022502 51 158 1.7 0.0 0.00 0.00 0.00 85 1006.8
20260510022002 51 180 2.6 0.0 0.00 0.00 0.00 85 1006.8
20260510021502 51 158 2.6 0.0 0.00 0.00 0.00 84 1006.8
20260510021002 51 113 2.6 0.0 0.00 0.00 0.00 84 1006.8
20260510020501 51 135 2.6 0.0 0.00 0.00 0.00 83 1007.1
20260510015502 51 68 4.3 0.0 0.00 0.00 0.00 83 1006.8
20260510015002 51 135 7.8 0.0 0.00 0.00 0.00 82 1006.8
20260510014501 52 135 7.0 0.0 0.00 0.00 0.00 82 1006.8
20260510014001 52 113 7.0 0.0 0.00 0.00 0.00 82 1006.8
20260510013501 52 203 10.4 0.0 0.00 0.00 0.00 82 1006.8
20260510013002 52 180 3.5 0.0 0.00 0.00 0.00 82 1006.8
20260510012502 52 113 6.1 0.0 0.00 0.00 0.00 81 1006.8
20260510012001 52 113 6.1 0.0 0.00 0.00 0.00 81 1007.1
20260510011502 52 203 1.7 0.0 0.00 0.00 0.00 81 1007.1
20260510011001 52 203 2.6 0.0 0.00 0.00 0.00 80 1006.8
20260510010501 52 180 3.5 0.0 0.00 0.00 0.00 80 1006.8
20260510005501 52 158 7.0 0.0 0.00 0.00 0.00 79 1007.1
20260510005002 53 180 1.7 0.0 0.00 0.00 0.00 78 1007.1
20260510004502 53 135 5.2 0.0 0.00 0.00 0.00 78 1007.1
20260510003501 53 113 2.6 0.0 0.00 0.00 0.00 77 1006.8
20260510003002 53 158 7.0 0.0 0.00 0.00 0.00 76 1006.8
20260510002502 53 158 4.3 0.0 0.00 0.00 0.00 76 1006.8
20260510000502 54 113 3.5 0.0 0.00 0.00 0.00 75 1006.8
20260510000002 54 113 2.6 0.0 0.00 0.00 0.00 75 1006.8
20260509235002 54 158 8.7 0.0 0.00 0.00 0.00 73 1006.8
20260509234001 55 135 2.6 0.0 0.00 0.00 0.00 72 1006.8
20260509233502 55 113 4.3 0.0 0.00 0.00 0.00 72 1006.8
20260509233001 55 90 6.1 0.0 0.00 0.00 0.00 71 1006.8
20260509232502 55 158 8.7 0.0 0.00 0.00 0.00 70 1006.8
20260509232002 55 90 2.6 0.0 0.00 0.00 0.00 70 1007.1
20260509231502 56 203 5.2 0.0 0.00 0.00 0.00 69 1007.1
20260509230502 57 203 5.2 0.0 0.00 0.00 0.00 67 1007.1
20260509230002 57 68 5.2 0.0 0.00 0.00 0.00 66 1007.1
20260509225502 57 113 4.3 0.0 0.00 0.00 0.00 66 1007.1
20260509225001 57 248 9.6 0.0 0.00 0.00 0.00 65 1007.1
20260509224001 58 180 11.3 0.0 0.00 0.00 0.00 64 1007.1
20260509223501 59 113 9.6 0.0 0.00 0.00 0.00 60 1007.1
20260509223002 60 158 4.3 0.0 0.00 0.00 0.00 61 1006.8
20260509222502 59 180 5.2 0.0 0.00 0.00 0.00 61 1006.8
20260509221502 60 180 3.5 0.0 0.00 0.00 0.00 59 1006.8
20260509221001 60 180 4.3 0.0 0.00 0.00 0.00 58 1006.8
20260509220501 61 180 9.6 0.0 0.00 0.00 0.00 56 1006.8
20260509215001 62 180 5.2 0.0 0.00 0.00 0.00 53 1006.8
20260509213501 62 135 7.0 0.0 0.00 0.00 0.00 52 1006.8
20260509213002 62 225 7.8 0.0 0.00 0.00 0.00 52 1006.8
20260509212502 62 180 7.8 0.0 0.00 0.00 0.00 52 1006.8
20260509212002 62 180 9.6 0.0 0.00 0.00 0.00 52 1006.8
20260509211502 62 158 4.3 0.0 0.00 0.00 0.00 52 1006.8
20260509211002 62 180 10.4 0.0 0.00 0.00 0.00 52 1007.1
20260509210002 62 203 8.7 0.0 0.00 0.00 0.00 50 1007.1
20260509205501 63 203 7.0 0.0 0.00 0.00 0.00 49 1007.1
20260509205002 63 180 3.5 0.0 0.00 0.00 0.00 49 1006.8
20260509204502 63 180 3.5 0.0 0.00 0.00 0.00 48 1007.1
20260509204001 64 203 13.9 0.0 0.00 0.00 0.00 47 1007.1
20260509203502 64 90 4.3 0.0 0.00 0.00 0.00 46 1007.1
20260509203001 64 158 8.7 0.0 0.00 0.00 0.00 44 1007.1
20260509202501 64 158 5.2 0.0 0.00 0.00 0.00 44 1007.1
20260509202002 64 180 6.1 0.0 0.00 0.00 0.00 43 1007.1
20260509201502 64 113 4.3 0.0 0.00 0.00 0.00 41 1007.1
20260509201001 64 180 8.7 0.0 0.00 0.00 0.00 39 1007.1
20260509195501 67 315 5.2 0.0 0.00 0.00 0.00 39 1007.5
20260509195001 67 158 4.3 0.0 0.00 0.00 0.00 30 1007.1
20260509193501 66 158 5.2 0.0 0.00 0.00 0.00 32 1007.5
20260509192502 67 113 3.5 0.0 0.00 0.00 0.00 30 1007.5
20260509192002 66 203 10.4 0.0 0.00 0.00 0.00 29 1007.1
20260509191502 65 113 8.7 0.0 0.00 0.00 0.00 30 1007.1
20260509191002 66 158 3.5 0.0 0.00 0.00 0.00 32 1007.1
20260509190002 67 158 6.1 0.0 0.00 0.00 0.00 31 1007.5
20260509185502 67 203 6.1 0.0 0.00 0.00 0.00 31 1007.5
20260509184502 67 225 5.2 0.0 0.00 0.00 0.00 30 1007.8
20260509184001 66 203 4.3 0.0 0.00 0.00 0.00 30 1007.8
20260509183501 65 180 3.5 0.0 0.00 0.00 0.00 30 1008.1